Location: ??????
(30.5519°N, 47.7720°E)
Time: 16:32:49
(UTC+00:00)

Cosmos 158 Rocket - Pass Details

Date: 24 January 2021
Orbit: 698 x 794 km, 74.0° (Epoch: 01 March)

Event Time Altitude Azimuth Distance (km) Brightness Sun altitude
Rises 15:27:07 0° 342° (NNW) 3,282 7.3 -15.0°
Reaches altitude 10° 15:29:31 10° 341° (NNW) 2,356 6.6 -15.5°
Maximum altitude 15:34:54 79° 255° (WSW) 811 4.2 -16.6°
Drops below altitude 10° 15:40:15 10° 170° (S) 2,348 6.5 -17.7°
Sets 15:42:38 0° 169° (SSE) 3,268 7.3 -18.2°
